PROGRESS-MS 17

Last updated on Fri Nov 26 2021 00:02:05 GMT+0000 (Coordinated Universal Time)

1 48869U 21057A 21328.32650273 .00003477 00000+0 72139-4 0 9990 2 48869 51.6442 270.8942 0004353 236.2486 259.6363 15.48634118313414
UTC large
Height (km)
Speed (km/s)
/
Latitude / Longitude
Inclination (degrees)
Orbital Period (minutes)
Azimuth
Elevation
Range (km)
Doppler Factor

Next 0 passes for location: London (51.5072 / 0.1276)

Sorry there are no passes over London.